Regional Weather Roundup
Issued by NWS

Home | Current Version | Previous Version | Text Only | Print | Product List | Glossary Off
Versions: 1 2 3 4 5 6 7 8 9 10 11 12 13 14 15 16 17 18 19 20 21 22 23 24 25 26 27 28 29 30 31 32 33 34 35 36 37 38 39 40 41 42 43 44 45 46 47 48 49 50

000
ASUS45 KTFX 061219
RWRMT
MONTANA HOURLY WEATHER ROUNDUP
NATIONAL WEATHER SERVICE GREAT FALLS MT
519 AM MST FRI MAR 6 2015

NOTE: "FAIR" INDICATES FEW OR NO CLOUDS BELOW 12000 FEET WITH NO
SIGNIFICANT WEATHER AND/OR OBSTRUCTIONS TO VISIBILITY.

* THESE STATIONS ARE NOT UNDER NWS QUALITY CONTROL. THEY DO NOT
   REPORT WEATHER SUCH AS PRECIPITATION OR FOG.

MTZ001>007-043-061300-
WEST OF THE DIVIDE
CITY           SKY/WX    TMP DP  RH WIND       PRES   REMARKS
KALISPELL      MOCLDY    19  16  88 NE5       30.31S WCI  12
MISSOULA       PTCLDY    23  18  81 CALM      30.36R
BUTTE          MOCLDY    28  14  56 NW3       30.29R
MULLAN PASS    PTCLDY    28  16  61 W3        30.29S
* ANACONDA     MOCLDY    32  16  52 S5         N/A   WCI  27
* ESSEX        N/A       18  14  84 N/A        N/A
* EUREKA APT   PTCLDY    21  14  74 CALM      30.29F
* HAMILTON APT PTCLDY    34  18  52 S12       30.34R WCI  25
* LIBBY APT    PTCLDY    21  19  92 CALM      30.34S
* LINCOLN      N/A       27  14  58 SE1        N/A
* LOOKOUT PASS N/A       29  19  66 NE1        N/A
* POLSON       N/A       31  16  54 SE1        N/A
* RONAN APT    MOCLDY    27  21  78 N/A        N/A
* SEELEY LAKE  N/A       15  11  84 N1         N/A
* THOMP F APT  PTCLDY    22  10  60 N2G9       N/A
* YAAK HILL    N/A       25  19  78 E1         N/A
$$

MTZ008-052>055-061300-
SOUTHWEST MONTANA
CITY           SKY/WX    TMP DP  RH WIND       PRES   REMARKS
BOZEMAN        PTCLDY    25  19  78 SE7       30.27S WCI  17
DILLON         MOCLDY    32  12  43 SW13      30.30R WCI  22
* W YELLOWSTON CLEAR      4   0  83 S1         N/A
* THREE FORKS  PTCLDY    32  18  56 W6         N/A   WCI  26
* BOULDER HILL N/A       35   9  34 SE3        N/A
* MONIDA PASS  N/A       18  10  71 E9         N/A   WCI   7
* RAYNOLDS PAS N/A       12  -4  48 S11        N/A   WCI  -2
* WHITEHALL    N/A       30   9  41 NW5        N/A   WCI  25
* WISE RIVER   N/A       33  10  38 SW8G17     N/A   WCI  26
$$

MTZ009>010-012-014-046-048-049-054-061300-
EAST SLOPES AND CENTRAL MONTANA
CITY           SKY/WX    TMP DP  RH WIND       PRES   REMARKS
CUT BANK       PTCLDY    37  18  46 W23       30.06F WCI  26
GREAT FALLS    PTCLDY    36  18  48 SW14      30.13R WCI  27
HELENA         PTCLDY    45  14  28 W21G30    30.22F
MALMSTROM AFB  PTCLDY    37  18  46 SW15      30.14R WCI  28
* CONRAD       PTCLDY    43  21  42 SW20G26    N/A
* DEARBORN     N/A       44  15  31 S6G11      N/A
* EAST GLACIER N/A       37  18  46 W14G19     N/A   WCI  28
* MONARCH      N/A       34  10  37 W21G28     N/A   WCI  22
* PENDROY      N/A       38  19  46 W20G28     N/A   WCI  28
* ROGERS PASS  N/A       33  11  40 SE19G34    N/A   WCI  22
* SWEET GRASS  N/A       38  19  46 W22G27     N/A   WCI  27
* WHITE SULPH  N/A       35  11  37 NE3G14     N/A
$$

MTZ011-013-016-021-035-040-045-047-050-051-061300-
NORTH CENTRAL MONTANA
CITY           SKY/WX    TMP DP  RH WIND       PRES   REMARKS
HAVRE          CLEAR     32  19  59 SW17      30.06R WCI  21
LEWISTOWN      CLEAR     32  18  56 NW5       30.11S WCI  27
* N BAR RANCH  CLEAR     34  14  44 W8        30.10S WCI  27
* CHINOOK      CLEAR     30  19  64 W8        30.05S WCI  22
* FORT BENTON  PTCLDY    37  18  46 S10       30.12S WCI  30
* CHESTER      N/A       37  19  48 W13G21     N/A   WCI  29
* DENTON       N/A       38  18  44 W15G20     N/A   WCI  29
* GEYSER       N/A       39  15  37 W17G23     N/A   WCI  30
* JUDITH GAP   N/A       35  15  44 W13G19     N/A   WCI  26
* LOMA         N/A       35  18  50 W14        N/A   WCI  26
$$

MTZ017>020-022>027-061-062-061300-
NORTHEAST MONTANA
CITY           SKY/WX    TMP DP  RH WIND       PRES   REMARKS
GLASGOW        CLOUDY    27  19  72 SW5       30.04S WCI  21
GLENDIVE       CLOUDY    25  18  75 CALM      30.07S
JORDAN         PTCLDY    30  23  75 W8        30.06S WCI  22
SIDNEY         CLOUDY    23  18  81 CALM      30.10R
WOLF POINT     CLOUDY    27  19  72 SW3       30.07R
* BEAVER HILL  N/A       27  15  61 S8         N/A   WCI  19
* CIRCLE       N/A       28  21  75 N/A        N/A
* LINDSAY DVD  N/A       32  17  54 NW8        N/A   WCI  25
* NAVAJO       N/A       27  20  75 SW4        N/A
* PLENTYWOOD A PTCLDY    21  16  81 NE3       30.03S
* POPLAR APT   PTCLDY    27  21  78 CALM      30.07R
* SACO         N/A       27  21  78 SE7        N/A   WCI  19
$$

MTZ028>042-056>058-061300-
SOUTHCENTRAL AND SOUTHEAST MONTANA
CITY           SKY/WX    TMP DP  RH WIND       PRES   REMARKS
BAKER          PTCLDY    25  14  63 W5        30.07R WCI  19
BILLINGS       MOCLDY    34  16  48 SW18      30.14S WCI  23
LIVINGSTON     PTCLDY    41  12  30 W23G35    30.19S
MILES CITY     CLOUDY    30  19  64 N/A       30.09R
* BIG TIMBER A PTCLDY    41  10  28 SW20G29   30.18S
* FORSYTH APT  PTCLDY    34  18  52 SW3       30.11R
* LAUREL APT   PTCLDY    30  14  51 SW6        N/A   WCI  24
* ROUNDUP APT  PTCLDY    39  10  30 W6         N/A   WCI  35
* ALZADA       N/A       29  20  69 W7         N/A   WCI  22
* HYSHAM       N/A       33  12  42 W4         N/A
* REED POINT   N/A       43  15  32 W4         N/A
* ROSCOE HILL  N/A       39   4  23 SW1G8      N/A
$$

REGIONAL REPORTS...DAKOTAS
CITY           SKY/WX    TMP DP  RH WIND       PRES   REMARKS
WILLISTON      MOCLDY    18  12  77 CALM      30.06S
DICKINSON      PTCLDY    19  12  74 W6        30.03R WCI  11
BEACH          CLEAR     21  16  81 CALM      30.06S
CROSBY         CLEAR     16  14  92 S12       30.05R WCI   3
TIOGA          CLEAR      7   7 100 SW3       30.07R
WATFORD CITY   CLEAR     14  10  84 CALM      30.05R
BISMARCK       CLEAR     16  12  84 W6        30.08R WCI   7
GRAND FORKS    CLEAR      9   3  76 W8        30.01R WCI  -3
FARGO          CLEAR     12   7  80 NW10      30.02R WCI  -1
BUFFALO SD     PTCLDY    27  16  63 W10       30.00R WCI  18
RAPID CITY     PTCLDY    27  16  63 W3        30.11R
$$

REGIONAL REPORTS...WYOMING/IDAHO/WASHINGTON
CITY           SKY/WX    TMP DP  RH WIND       PRES   REMARKS
GILLETTE       PTCLDY    32  16  52 SW14      30.14R WCI  22
SHERIDAN       PTCLDY    25  12  58 S6        30.14S WCI  18
CODY           MOCLDY    41  10  28 W15G25    30.19R
YELLOWSTONE LA MOCLDY     1   0  95 NW3       30.35F
SALMON         PTCLDY    18  12  77 CALM      30.42R
MULLAN PASS    PTCLDY    28  16  61 W3        30.29S
SAND POINT     PTCLDY    27  25  92 CALM      30.36S
SPOKANE        MOCLDY    36  23  59 S8        30.34S WCI  30
$$

REGIONAL REPORTS...ALBERTA
CITY           SKY/WX    TMP DP  RH WIND       PRES   REMARKS
CALGARY        MOCLDY    45  21  38 W16G23    29.97R
LETHBRIDGE     CLOUDY    43  19  38 W28G36    30.04R
MEDICINE HAT   MOCLDY    32  25  75 SW10      29.99S WCI  24
EDMONTON       MOCLDY    34  25  70 W12       29.90R WCI  25
WATERTON GATE  N/A       39  19  45 SW22G33    N/A   WCI  29
CARDSTON       N/A       43  25  49 W17G26     N/A
MILK RIVER     N/A       34  23  64 W13        N/A   WCI  25
$$

REGIONAL REPORTS...SASKATCHEWAN
CITY           SKY/WX    TMP DP  RH WIND       PRES   REMARKS
SWIFT CURRENT  MOCLDY    27  21  78 SW12      29.94F WCI  16
MOOSE JAW      CLOUDY    21  18  88 S5        29.98F WCI  14
REGINA         CLOUDY     9   7  91 S6        29.99F WCI  -1
VAL MARIE      N/A       27  23  85 W1         N/A
ASSINIBOIA     N/A       25  19  78 SW7        N/A   WCI  17
CORONACH       N/A       19  18  96 SE3        N/A

$$



USA.gov is the U.S. government's official web portal to all federal, state and local government web resources and services.